Hovedside
METAR-TAF:

METAR-TAF

Lufthavner :

Hasvik lufthavn

Hasvik, Norge

breddegrad: 70-29N, lengdegrad: 022-09E, høyde over havet: 10 m

Gjeldene værobservasjon

Denne rapporten ble laget for 8 timer og 45 minutter siden, klokken 20:50 UTC
Vind 29 kt fra Sørøst
Temperatur -4°C
Luftfuktighet 63%
Trykk 1004 hPa
Sikt 10 km eller mer
Få skyer i en høyde av 1700 ft
snødrev

METAR: ENHK 282050Z 13029KT 9999 BLSN FEW017 M04/M10 Q1004

Tid: 06:35 (05:35 UTC)


TAF: fraværende

Værobservasjoner og værvarsel for over 4000 flyplasser (METAR- og TAF-rapporter).

Tilgjengelige stasjoner er representert av de røde og gule prikkene på kartet.

Hold musepekeren over prikken for å se navnet på stasjonen.

Klikk så for å se værobservasjoner og -varsler.

For å forandre kartet kan du klikke på den grønne knappen med svart kryss for å zoome inn, på den grønne knappen med strek for å zoome ut, eller på de grønne pilene for å se tilstøtende kart.


METAR-TAF: